Mount Ida, AR

12:14 AM CST on January 20, 2017 (GMT -0600)
Mount Ida

Weather History for KMWT - May, 2013

Change the Weather History Date:

Friday, May 3, 2013

  Actual Average (KHOT) Record (KHOT)
Temperature  
Mean Temperature 45 °F -  
Max Temperature 57 °F 76 °F 90 °F (1952)
Min Temperature 35 °F 52 °F 39 °F (2013)
Degree Days  
Heating Degree Days 20    
Moisture  
Dew Point 35 °F    
Average Humidity 80    
Maximum Humidity 100    
Minimum Humidity 36    
Precipitation  
Precipitation 0.26 in - - ()
Sea Level Pressure  
Sea Level Pressure 30.05 in    
Wind  
Wind Speed 7 mph (NW)    
Max Wind Speed 13 mph    
Max Gust Speed 26 mph    
Visibility 8 miles    
Events Rain    
Averages and records for this station are not official NWS values.
T = Trace of Precipitation, MM = Missing Value Source: NWS Daily Summary

Daily Weather History Graph

Daily Weather History Graph

Search for Another Location

Airport or City:

Trip Planner

Search our weather history database for the weather conditions in past years. The results will help you decide how hot, cold, wet, or windy it might be!

Date:

Astronomy

May. 03, 2013 Rise Set
Actual Time 6:21 AM CDT 8:00 PM CDT
Civil Twilight 5:54 AM CDT 8:27 PM CDT
Nautical Twilight 5:22 AM CDT 9:00 PM CDT
Astronomical Twilight 4:48 AM CDT 9:35 PM CDT
Moon 2:30 AM CDT (5/3) 2:10 PM CDT (5/3)
Length of Visible Light 14h 33m
Length of Day
13h 38m
Last Quarter, 37% of the Moon is Illuminated
May 3
Last Quarter
May 9
New
May 17
First Quarter
May 24
Full
May 31
Last Quarter

Hourly Weather History & Observations

Time (CDT) Temp. Windchill Dew Point Humidity Pressure Visibility Wind Dir Wind Speed Gust Speed Precip Events Conditions
12:53 AM 39.9 °F 34.5 °F 37.9 °F 93% 30.14 in 6.0 mi NW 8.1 mph - 0.02 in Rain Light Rain
1:53 AM 39.0 °F 34.0 °F 37.0 °F 93% 30.12 in 7.0 mi Variable 6.9 mph 19.6 mph 0.00 in Rain Light Rain
2:53 AM 37.9 °F 32.7 °F 37.0 °F 97% 30.10 in 4.0 mi NW 6.9 mph - 0.01 in Rain Light Rain
3:53 AM 37.0 °F 32.4 °F 36.0 °F 96% 30.09 in 2.5 mi Variable 5.8 mph - 0.06 in Rain Rain
3:58 AM 37.4 °F 31.4 °F 35.6 °F 93% 30.07 in 2.5 mi NNW 8.1 mph - 0.02 in Rain Light Rain
4:05 AM 37.4 °F 32.1 °F 35.6 °F 93% 30.07 in 3.0 mi Variable 6.9 mph - 0.04 in Rain Light Rain
4:18 AM 37.4 °F 32.1 °F 35.6 °F 93% 30.07 in 7.0 mi NNW 6.9 mph - 0.04 in Rain Light Rain
4:53 AM 37.0 °F 32.4 °F 36.0 °F 96% 30.08 in 4.0 mi Variable 5.8 mph 16.1 mph 0.09 in Rain Light Rain
5:07 AM 37.4 °F 32.1 °F 35.6 °F 93% 30.06 in 8.0 mi Variable 6.9 mph - 0.01 in Rain Light Rain
5:49 AM 35.6 °F 29.2 °F 35.6 °F 100% 30.06 in 7.0 mi NW 8.1 mph - 0.02 in Rain Light Rain
5:53 AM 36.0 °F 31.1 °F 34.0 °F 93% 30.09 in 7.0 mi NW 5.8 mph - 0.03 in Rain Light Rain
6:38 AM 35.6 °F 29.9 °F 33.8 °F 93% 30.06 in 10.0 mi WNW 6.9 mph - 0.02 in Rain Light Rain
6:53 AM 36.0 °F 30.3 °F 34.0 °F 93% 30.09 in 10.0 mi Variable 6.9 mph 16.1 mph 0.03 in Rain Light Rain
7:23 AM 35.6 °F 30.7 °F 35.6 °F 100% 30.08 in 5.0 mi Variable 5.8 mph - 0.01 in Rain Light Rain
7:53 AM 37.0 °F 31.6 °F 35.1 °F 93% 30.09 in 10.0 mi NW 6.9 mph 18.4 mph 0.02 in   Overcast
8:53 AM 39.0 °F 32.8 °F 36.0 °F 89% 30.09 in 10.0 mi NW 9.2 mph 20.7 mph N/A   Overcast
9:53 AM 41.0 °F 34.7 °F 37.0 °F 86% 30.07 in 10.0 mi NNW 10.4 mph 23.0 mph N/A   Overcast
10:53 AM 42.1 °F 37.7 °F 37.0 °F 82% 30.09 in 10.0 mi NNW 6.9 mph 16.1 mph N/A   Overcast
11:53 AM 43.0 °F 37.7 °F 36.0 °F 76% 30.09 in 10.0 mi NNW 9.2 mph 18.4 mph N/A   Overcast
12:53 PM 45.0 °F 39.7 °F 37.0 °F 74% 30.07 in 10.0 mi NW 10.4 mph 16.1 mph N/A   Overcast
1:40 PM 48.2 °F - 37.4 °F 66% 30.03 in 10.0 mi NNW 12.7 mph 20.7 mph N/A   Overcast
1:53 PM 50.0 °F - 37.0 °F 61% 30.04 in 10.0 mi NNW 11.5 mph 18.4 mph N/A   Mostly Cloudy
2:53 PM 55.0 °F - 36.0 °F 49% 30.01 in 10.0 mi NW 8.1 mph 16.1 mph N/A   Mostly Cloudy
3:53 PM 55.9 °F - 32.0 °F 40% 29.99 in 10.0 mi NNW 6.9 mph 26.5 mph N/A   Mostly Cloudy
4:53 PM 55.9 °F - 32.0 °F 40% 29.98 in 10.0 mi Variable 6.9 mph - N/A   Scattered Clouds
5:53 PM 55.9 °F - 28.9 °F 36% 29.99 in 10.0 mi NW 5.8 mph - N/A   Mostly Cloudy
6:53 PM 55.0 °F - 30.0 °F 38% 29.99 in 10.0 mi NW 6.9 mph - N/A   Clear
7:53 PM 48.0 °F - 33.1 °F 56% 29.99 in 10.0 mi Calm Calm - N/A   Clear
8:53 PM 43.0 °F - 36.0 °F 76% 30.00 in 10.0 mi Calm Calm - N/A   Clear
9:53 PM 39.0 °F - 37.0 °F 93% 30.00 in 10.0 mi Calm Calm - N/A   Clear
10:53 PM 37.9 °F - 36.0 °F 93% 30.00 in 10.0 mi Calm Calm - N/A   Clear
11:53 PM 37.0 °F - 36.0 °F 96% 29.97 in 10.0 mi Calm Calm - N/A   Clear